STARLINK-32718, 62496

Orbit data source: Space-Track

STARLINK-32718, 62496 is a payload satellite owned by SpaceX/Seattle (US) in LEO that was launched on Mon, 06 Jan 2025 UTC via an FALCON 9 launch vehicle from the Air Force Eastern Test Range (AFETR). Payload-class satellites include a variety of spacecraft equipped with specific instruments for various scientific and technological missions. These include communications satellites like Starlink; space stations such as the ISS; scientific satellites like the Hubble; Earth observation satellites from companies like Planet Labs, Umbra, and HawkEye 360; GPS; miniature CubeSats for education and research; and military/defense satellites.

Loading next visibility...
Identifier
62496, 2025-003K
Orbit
LEO
Country
Flag of USUS
Related business
Manufacturer
SpaceX/Seattle
Mission
Operational Commercial Communications
Bus & Motor
STARLINK V2M, Unknown motor
Mass
730 kg wet, ~700 kg dry
Launch date (UTC)
2025-01-06 (1 year ago)
Launch vehicle
FALCON 9
Launch site
Air Force Eastern Test Range (AFETR)
Object type
Payload
Rocket body
Debris
Shape & HBR
Box + 2 Pan, 17.7 m
Radar Cross Section
33.884 m², Large (>1 m²)

Expand to show TLE details & history
Last TLE update: 17 hours ago

TLE from 17 hours ago
0 STARLINK-32718
1 62496U 25003K   26171.13921826  .00011893  00000-0  44077-3 0  9993
2 62496  42.9999  70.0662 0001484 273.0322  87.0360 15.27597454 82225
Epoch: 2026-06-20T03:20Z
TLE epoch observation values (Epoch: 2026-06-20T03:20:28.457Z)
Latitude
-0.00001°
Longitude
111.58948°
Altitude
482.72 km
Speed
7.626 km/s
True Right ascension
04h 40m 15s
True Declination
0° 00' 00"
Sunlit
Object was in daylight at epoch
Visualization orbit readout
Latitude
Unknown
Longitude
Unknown
Altitude
Unknown
Speed
Unknown
Apparent Right ascension
Unknown
Apparent Declination
Unknown
Sunlit
N/A
Visualization observer readout
Local Sidereal Time
07:17:40
Azimuth
Unknown
Elevation
Unknown
Doppler factor
Unknown
Orbital elements
Apogee altitude
485.961 km
Perigee altitude
483.924 km
Semi-major axis
6,863.079 km
Eccentricity
0.00015
Inclination
42.9999°
RAAN
70.0662°
Arg. of periapsis
273.0322°
True anomaly
87.05298°
Mean anomaly
87.036°
Eccentric anomaly
87.04449°
Mean motion
3.81737 °/min
Orbital period
94.31 mins
BSTAR
0.00044077
Loading maneuver chart data...
Computing Atmospheric mass density...
Loading historical data...
Loading historical data...
Loading historical data...
Loading historical data...
Loading historical data...
Loading historical data...
Loading historical data...

Documentation

Showing up to 5 results
|